Regional Weather Roundup
Issued by NWS

Home | Current Version | Previous Version | Text Only | Print | Product List | Glossary On
Versions: 1 2 3 4 5 6 7 8 9 10 11 12 13 14 15 16 17 18 19 20 21 22 23 24 25 26 27 28 29 30 31 32 33 34 35 36 37 38 39 40 41 42 43 44 45 46 47 48 49 50
216
ASUS44 KJAN 192110
RWRMS

MISSISSIPPI HOURLY WEATHER ROUNDUP
NATIONAL WEATHER SERVICE JACKSON MS
400 PM CDT SUN APR 19 2015

NOTE: "FAIR: INDICATES FEW OR NO CLOUDS BELOW 12,000 FEET WITH NO
SIGNIFICANT WEATHER AND/OR OBSTRUCTIONS TO VISIBILITY.

MSZ001>002-007>008-010>013-018>021-025>028-034>036-192200-
NORTHWEST MISSISSIPPI

CITY           SKY/WX    TMP DP  RH WIND       PRES   REMARKS
CLARKSDALE     FAIR      77  63  61 SW12G18   29.65F
CLEVELAND      FAIR      77  63  60 W13       29.67F
GREENWOOD      SUNNY     79  56  45 SW13G20   29.68F
GREENVILLE     SUNNY     77  61  57 SW14G23   29.66F
OLIVE BRANCH   MOSUNNY   75  61  60 W17G25    29.62F
OXFORD         FAIR      73  57  56 W13G21    29.66F
TUNICA         CLEAR     75  61  60 SW14      29.65F
$$

MSZ003>006-009-014>017-022>024-029>033-037>039-192200-
NORTHEAST MISSISSIPPI

CITY           SKY/WX    TMP DP  RH WIND       PRES   REMARKS
COLUMBUS AFB   MOSUNNY   78  61  56 W15G25    29.68S
CORINTH        MOCLDY    73  63  68 SW14      29.61F
GOLDN TRIANGLE PTSUNNY   77  59  53 W12G21    29.68F
STARKVILLE     MOCLDY    77  57  50 W8G18     29.69S
TUPELO         MOSUNNY   76  62  62 W14G21    29.65F
$$

MSZ040-058-192200-
CENTRAL MISSISSIPPI

CITY           SKY/WX    TMP DP  RH WIND       PRES   REMARKS
JACKSON INTL   SUNNY     79  58  48 SW10G17   29.73F
JACKSON HAWKNS SUNNY     78  58  49 W9        29.73F
MERIDIAN KEY   SUNNY     80  55  42 W10       29.73S
MERIDIAN NAS   MOSUNNY   80  54  40 W21G28    29.72F
RAYMOND        FAIR      79  73  83 W10G17    29.73F
VICKSBURG      SUNNY     79  63  57 VRB6      29.72F
$$

MSZ059>079-192200-
SOUTH MISSISSIPPI

CITY           SKY/WX    TMP DP  RH WIND       PRES   REMARKS
BROOKHAVEN     FAIR     N/A N/A N/A SW6       29.77F
HATTIESBURG    SUNNY     85  55  35 W12       29.75S
MCCOMB         SUNNY     81  59  47 W8G17     29.76F
NATCHEZ        SUNNY     79  63  57 S9        29.75F
PINE BELT      SUNNY     82  55  39 W7        29.76S
$$

MSZ080>082-192200-
COASTAL MISSISSIPPI

CITY           SKY/WX    TMP DP  RH WIND       PRES   REMARKS
BAY ST LOUIS   SUNNY     82  55  39 MISG      29.76F
BILOXI         SUNNY     81  70  69 SW17      29.76F
PASCAGOULA     SUNNY     80  69  69 SW9       29.77F
GULFPORT       MOSUNNY   83  61  47 SW13G20   29.75F
$$



USA.gov is the U.S. government's official web portal to all federal, state and local government web resources and services.